Regional Weather Roundup
Issued by NWS

Home | Current Version | Previous Version | Graphics & Text | Print | Product List | Glossary On
Versions: 1 2 3 4 5 6 7 8 9 10 11 12 13 14 15 16 17 18 19 20 21 22 23 24 25 26 27 28 29 30 31 32 33 34 35 36 37 38 39 40 41 42 43 44 45 46 47 48 49 50
000
ASUS43 KIND 290109
RWRIN

WEATHER ROUNDUP FOR INDIANA
NATIONAL WEATHER SERVICE INDIANAPOLIS IN
900 PM EDT SUN AUG 28 2016

NOTE: "FAIR" INDICATES FEW OR NO CLOUDS BELOW 12,000 FEET WITH NO
SIGNIFICANT WEATHER AND/OR OBSTRUCTIONS TO VISIBILITY.

* - STATION DOES NOT REPORT WEATHER SUCH AS PRECIPITATION OR FOG.

+ - STATION NOT QUALITY CONTROLLED BY THE NATIONAL WEATHER SERVICE.
    USE DATA WITH CAUTION...ESPECIALLY DEWPOINT AND RELATIVE
    HUMIDITY OBSERVATIONS.

INZ001>003-010>013-019-020-290200-
NORTHWEST INDIANA

CITY           SKY/WX    TMP DP  RH WIND       PRES   REMARKS
GARY /AIRPORT/ MOCLDY    75  73  94 NE8       30.17S
KNOX *+        CLEAR     70  55  60 CALM      30.17S
LA PORTE +     CLOUDY   N/A N/A N/A CALM      30.18F HAZE
MICHIGAN CITY+ MOCLDY    72  72 100 CALM      30.18F
MONTICELLO +   CLEAR     72  65  78 CALM      30.16R
RENSSELAER +   MOCLDY    73  72  94 N3        30.16S
VALPARAISO     LGT RAIN  71  70  96 N3        30.18S

$$

LMZ046-743>745-290200-
SOUTHERN LAKE MICHIGAN

STATION/POSITION TIME  TEMP    WIND        PRES    WAVE
                       AIR SEA DIR/SP/G            HT
                 (UTC) (F)     (DEG/KT/KT) (MB)    (FT)
BURNS HARBOR     0001   74      70/  6/  9 1022.0S
MICHIGAN CITY    0000   74      20/ 10/ 12   N/A
5NW MICH CITY    0100   75 77   40/ 12/ 14   N/A     2

$$

INZ004-005-014>016-021>024-290200-
NORTH CENTRAL INDIANA

CITY           SKY/WX    TMP DP  RH WIND       PRES   REMARKS
GOSHEN         PTCLDY    72  69  90 CALM      30.18R
LOGANSPORT +   CLEAR     70  70 100 E5        30.18R
PERU/GRISSOM   CLEAR     70  70 100 E3        30.16S
ROCHESTER +    CLEAR     73  72  94 N3        30.18S
SOUTH BEND     PTCLDY    74  71  91 SW5       30.19R
WARSAW +       PTCLDY    70  70 100 CALM      30.19R

$$

INZ006>009-017-018-025>027-290200-
NORTHEAST INDIANA

CITY           SKY/WX    TMP DP  RH WIND       PRES   REMARKS
ANGOLA *+      CLEAR     72  64  78 CALM      30.19R
AUBURN +       CLOUDY    70  68  94 CALM      30.20R
FORT WAYNE     CLOUDY    72  68  87 CALM      30.19R
HUNTINGTON +   CLOUDY    70  69  96 CALM      30.19R

$$

INZ028-029-035-036-043>045-051>053-290200-
WEST CENTRAL INDIANA

CITY           SKY/WX    TMP DP  RH WIND       PRES   REMARKS
CRAWFORDSVL +  CLEAR     73  71  93 E5        30.15S
GREENCASTLE +  CLEAR     77  75  94 CALM      30.16R
LAFAYETTE      PTCLDY    73  70  90 E9        30.14R
TERRE HAUTE    CLEAR     80  74  81 NE3       30.13R

$$

INZ030>032-037>040-046>048-054>057-064-065-290200-
CENTRAL INDIANA

CITY           SKY/WX    TMP DP  RH WIND       PRES   REMARKS
COLUMBUS       PTCLDY    81  81 100 N5        30.15R
INDIANAPOLIS   PTCLDY    79  73  82 NE12      30.16R
-EAGLE CREEK   CLEAR     78  72  81 NE8       30.16R
KOKOMO *+      PTCLDY    72  68  88 E6        30.18R
MARION +       CLOUDY    71  69  92 SE6       30.21R
MT COMFORT *+  PTCLDY    73  70  88 NE9       30.19R
SHELBYVILLE    CLEAR     79  68  69 NE8       30.17R
ZIONSVILLE +   CLEAR     71  66  83 E3        30.19R

$$

INZ033-034-041-042-049-050-058-059-290200-
EAST CENTRAL INDIANA

CITY           SKY/WX    TMP DP  RH WIND       PRES   REMARKS
MUNCIE         LGT RAIN  74  68  81 VRB3      30.18F

$$

INZ060-061-067>069-081>083-085>088-290200-
SOUTHWEST INDIANA

CITY           SKY/WX    TMP DP  RH WIND       PRES   REMARKS
EVANSVILLE     CLEAR     82  74  76 N3        30.11R
HUNTINGBURG *+ PTCLDY    81  73  78 CALM      30.12R
WASHINGTON +   CLEAR     80  80 100 MISG      30.12R

$$

INZ062-063-066-070>080-084-089>092-290200-
SOUTH CENTRAL AND SOUTHEAST INDIANA

CITY           SKY/WX    TMP DP  RH WIND       PRES   REMARKS
BLOOMINGTON    CLEAR     79  74  84 CALM      30.15R
MADISON *+     CLOUDY    72  68  88 E3        30.21R

$$





USA.gov is the U.S. government's official web portal to all federal, state and local government web resources and services.